Location: Alsip
(41.6689°N, 87.7387°W)
Time: 14:32:31
(UTC+00:00)

SL-19 R/B - Pass Details

Date: 14 July 2020
Orbit: 796 x 1009 km, 99.4° (Epoch: 12 August)

Event Time Altitude Azimuth Distance (km) Brightness Sun altitude
Rises 07:04:51 0° 13° (NNE) 3,748 9.0 -24.8°
Reaches altitude 10° 07:07:21 10° 12° (NNE) 2,796 8.0 -24.7°
Maximum altitude 07:13:41 80° 287° (WNW) 1,021 4.5 -24.3°
Enters shadow 07:15:20 52° 211° (SSW) 1,222 4.6 -24.2°
